"Period start","avg(HW err(1)/warn(2) (#))","avg(Visibility (m))","avg(Weather code (#))","avg(Precip intensity (mm/h))","min(HW err(1)/warn(2) (#))","max(HW err(1)/warn(2) (#))","std(HW err(1)/warn(2) (#))","med(HW err(1)/warn(2) (#))","min(Visibility (m))","max(Visibility (m))","std(Visibility (m))","med(Visibility (m))","min(Weather code (#))","max(Weather code (#))","std(Weather code (#))","med(Weather code (#))","min(Precip intensity (mm/h))","max(Precip intensity (mm/h))","std(Precip intensity (mm/h))","med(Precip intensity (mm/h))"
2016-06-25 00:00:00,2,41492,0,0.00,2,2,0,2,27765,50000,7638,41528,0,0,0,0,0.00,0.00,0.00,0.00
2016-06-25 00:10:00,2,37090,0,0.00,2,2,0,2,22003,50000,8767,38205,0,0,0,0,0.00,0.00,0.00,0.00
2016-06-25 00:20:00,2,43286,0,0.00,2,2,0,2,27434,50000,7948,46830,0,0,0,0,0.00,0.00,0.00,0.00
2016-06-25 00:30:00,2,43282,0,0.00,2,2,0,2,24956,50000,8950,48710,0,0,0,0,0.00,0.00,0.00,0.00
2016-06-25 00:40:00,2,41078,0,0.00,2,2,0,2,32285,50000,6633,38463,0,0,0,0,0.00,0.00,0.00,0.00
2016-06-25 00:50:00,2,43217,0,0.00,2,2,0,2,34934,50000,5062,43196,0,0,0,0,0.00,0.00,0.00,0.00
2016-06-25 01:00:00,2,40336,0,0.00,2,2,0,2,22526,50000,10029,43394,0,0,0,0,0.00,0.00,0.00,0.00
2016-06-25 01:10:00,2,28960,0,0.00,2,2,0,2,20106,47600,6844,27626,0,0,0,0,0.00,0.00,0.00,0.00
2016-06-25 01:20:00,2,43907,0,0.00,2,2,0,2,27936,50000,6497,46683,0,0,0,0,0.00,0.00,0.00,0.00
2016-06-25 01:30:00,2,39833,0,0.00,2,2,0,2,27844,50000,8475,42432,0,0,0,0,0.00,0.00,0.00,0.00
2016-06-25 01:40:00,2,45278,0,0.00,2,2,0,2,32528,50000,5407,46150,0,0,0,0,0.00,0.00,0.00,0.00
2016-06-25 01:50:00,2,38498,0,0.00,2,2,0,2,26406,50000,7879,38683,0,0,0,0,0.00,0.00,0.00,0.00
2016-06-25 02:00:00,2,41531,0,0.00,2,2,0,2,30716,49661,5988,41166,0,0,0,0,0.00,0.00,0.00,0.00
2016-06-25 02:10:00,2,46168,0,0.00,2,2,0,2,36958,50000,4171,46762,0,0,0,0,0.00,0.00,0.00,0.00
2016-06-25 02:20:00,2,38903,0,0.00,2,2,0,2,27048,50000,6332,38738,0,0,0,0,0.00,0.00,0.00,0.00
2016-06-25 02:30:00,2,41149,0,0.00,2,2,0,2,31863,47128,4794,39528,0,0,0,0,0.00,0.00,0.00,0.00
2016-06-25 02:40:00,2,40080,0,0.00,2,2,0,2,22271,50000,8746,41176,0,0,0,0,0.00,0.00,0.00,0.00
2016-06-25 02:50:00,2,39955,0,0.00,2,2,0,2,26310,50000,8524,41564,0,0,0,0,0.00,0.00,0.00,0.00
2016-06-25 03:00:00,2,47134,0,0.00,2,2,0,2,39809,50000,3885,50000,0,0,0,0,0.00,0.00,0.00,0.00
2016-06-25 03:10:00,2,40771,0,0.00,2,2,0,2,34177,50000,4904,39821,0,0,0,0,0.00,0.00,0.00,0.00
2016-06-25 03:20:00,2,39988,0,0.00,2,2,0,2,33440,50000,6005,36948,0,0,0,0,0.00,0.00,0.00,0.00
2016-06-25 03:30:00,2,48386,0,0.00,2,2,0,2,43191,50000,2342,50000,0,0,0,0,0.00,0.00,0.00,0.00
2016-06-25 03:40:00,2,45155,0,0.00,2,2,0,2,33700,50000,6190,50000,0,0,0,0,0.00,0.00,0.00,0.00
2016-06-25 03:50:00,2,46214,0,0.00,2,2,0,2,35081,50000,4665,47996,0,0,0,0,0.00,0.00,0.00,0.00
2016-06-25 04:00:00,2,44421,0,0.00,2,2,0,2,35864,50000,5550,46220,0,0,0,0,0.00,0.00,0.00,0.00
2016-06-25 04:10:00,2,46067,0,0.00,2,2,0,2,35538,50000,4554,47868,0,0,0,0,0.00,0.00,0.00,0.00
2016-06-25 04:20:00,2,49591,0,0.00,0,2,1,2,46725,50000,986,50000,0,0,0,0,0.00,0.00,0.00,0.00
2016-06-25 04:30:00,0,47411,0,0.00,0,2,1,0,42304,50000,2766,48200,0,0,0,0,0.00,0.00,0.00,0.00
2016-06-25 04:40:00,0,48560,0,0.00,0,0,0,0,43266,50000,2166,50000,0,0,0,0,0.00,0.00,0.00,0.00
2016-06-25 04:50:00,0,48108,0,0.00,0,0,0,0,39447,50000,3816,50000,0,0,0,0,0.00,0.00,0.00,0.00
2016-06-25 05:00:00,0,47634,0,0.00,0,0,0,0,36060,50000,4368,50000,0,0,0,0,0.00,0.00,0.00,0.00
2016-06-25 05:10:00,0,48678,0,0.00,0,0,0,0,42901,50000,2137,50000,0,0,0,0,0.00,0.00,0.00,0.00
2016-06-25 05:20:00,0,50000,0,0.00,0,0,0,0,50000,50000,0,50000,0,0,0,0,0.00,0.00,0.00,0.00
2016-06-25 05:30:00,0,50000,0,0.00,0,0,0,0,50000,50000,0,50000,0,0,0,0,0.00,0.00,0.00,0.00
2016-06-25 05:40:00,0,46960,0,0.00,0,0,0,0,38588,50000,4223,49186,0,0,0,0,0.00,0.00,0.00,0.00
2016-06-25 05:50:00,0,45034,0,0.00,0,0,0,0,37229,50000,4617,45970,0,0,0,0,0.00,0.00,0.00,0.00
2016-06-25 06:00:00,0,47320,0,0.00,0,0,0,0,37779,50000,4120,49888,0,0,0,0,0.00,0.00,0.00,0.00
2016-06-25 06:10:00,0,48238,0,0.00,0,0,0,0,44145,50000,2129,49518,0,0,0,0,0.00,0.00,0.00,0.00
2016-06-25 06:20:00,0,48817,0,0.00,0,0,0,0,41889,50000,2504,50000,0,0,0,0,0.00,0.00,0.00,0.00
2016-06-25 06:30:00,0,49920,0,0.00,0,0,0,0,49196,50000,241,50000,0,0,0,0,0.00,0.00,0.00,0.00
2016-06-25 06:40:00,0,49191,0,0.00,0,0,0,0,44874,50000,1686,50000,0,0,0,0,0.00,0.00,0.00,0.00
2016-06-25 06:50:00,0,49578,0,0.00,0,0,0,0,47452,50000,806,50000,0,0,0,0,0.00,0.00,0.00,0.00
2016-06-25 07:00:00,0,49719,0,0.00,0,0,0,0,47267,50000,818,50000,0,0,0,0,0.00,0.00,0.00,0.00
2016-06-25 07:10:00,0,49395,0,0.00,0,0,0,0,45812,50000,1317,50000,0,0,0,0,0.00,0.00,0.00,0.00
2016-06-25 07:20:00,0,47369,0,0.00,0,0,0,0,36030,50000,4495,50000,0,0,0,0,0.00,0.00,0.00,0.00
2016-06-25 07:30:00,0,46647,0,0.00,0,0,0,0,38209,50000,4784,49904,0,0,0,0,0.00,0.00,0.00,0.00
2016-06-25 07:40:00,0,47790,0,0.00,0,0,0,0,37622,50000,3982,50000,0,0,0,0,0.00,0.00,0.00,0.00
2016-06-25 07:50:00,0,48774,0,0.00,0,0,0,0,42908,50000,2419,50000,0,0,0,0,0.00,0.00,0.00,0.00
2016-06-25 08:00:00,0,49535,0,0.00,0,0,0,0,46022,50000,1188,50000,0,0,0,0,0.00,0.00,0.00,0.00
2016-06-25 08:10:00,0,44810,0,0.00,0,0,0,0,29749,50000,6599,46227,0,0,0,0,0.00,0.00,0.00,0.00
2016-06-25 08:20:00,0,49925,0,0.00,0,0,0,0,49285,50000,214,50000,0,0,0,0,0.00,0.00,0.00,0.00
2016-06-25 08:30:00,0,46447,0,0.00,0,0,0,0,27860,50000,6706,49928,0,0,0,0,0.00,0.00,0.00,0.00
2016-06-25 08:40:00,0,48500,0,0.00,0,0,0,0,43874,50000,2411,50000,0,0,0,0,0.00,0.00,0.00,0.00
2016-06-25 08:50:00,0,50000,0,0.00,0,0,0,0,50000,50000,0,50000,0,0,0,0,0.00,0.00,0.00,0.00
2016-06-25 09:00:00,0,49403,0,0.00,0,0,0,0,47171,50000,1074,50000,0,0,0,0,0.00,0.00,0.00,0.00
2016-06-25 09:10:00,0,49138,0,0.00,0,2,1,0,45977,50000,1252,49762,0,0,0,0,0.00,0.00,0.00,0.00
2016-06-25 09:20:00,2,49596,0,0.00,0,2,1,2,46901,50000,926,50000,0,0,0,0,0.00,0.00,0.00,0.00
2016-06-25 09:30:00,1,49426,0,0.00,0,2,1,1,44269,50000,1719,50000,0,0,0,0,0.00,0.00,0.00,0.00
2016-06-25 09:40:00,0,49822,0,0.00,0,0,0,0,48835,50000,376,50000,0,0,0,0,0.00,0.00,0.00,0.00
2016-06-25 09:50:00,0,49087,0,0.00,0,0,0,0,43236,50000,1984,50000,0,0,0,0,0.00,0.00,0.00,0.00
2016-06-25 10:00:00,1,47380,0,0.00,0,2,1,2,42070,50000,2926,48972,0,0,0,0,0.00,0.00,0.00,0.00
2016-06-25 10:10:00,1,48668,0,0.00,0,2,1,2,45131,50000,2042,50000,0,0,0,0,0.00,0.00,0.00,0.00
2016-06-25 10:20:00,1,49570,0,0.00,0,2,1,0,46931,50000,929,50000,0,0,0,0,0.00,0.00,0.00,0.00
2016-06-25 10:30:00,0,49550,0,0.00,0,0,0,0,46887,50000,979,50000,0,0,0,0,0.00,0.00,0.00,0.00
2016-06-25 10:40:00,1,49497,0,0.00,0,2,1,0,44969,50000,1509,50000,0,0,0,0,0.00,0.00,0.00,0.00
2016-06-25 10:50:00,2,48689,0,0.00,2,2,0,2,45144,50000,1864,50000,0,0,0,0,0.00,0.00,0.00,0.00
2016-06-25 11:00:00,2,49721,0,0.00,2,2,0,2,47280,50000,814,50000,0,0,0,0,0.00,0.00,0.00,0.00
2016-06-25 11:10:00,2,48417,0,0.00,2,2,0,2,44134,50000,2430,50000,0,0,0,0,0.00,0.00,0.00,0.00
2016-06-25 11:20:00,2,48860,0,0.00,2,2,0,2,45770,50000,1491,50000,0,0,0,0,0.00,0.00,0.00,0.00
2016-06-25 11:30:00,2,47323,0,0.00,2,2,0,2,38938,50000,4200,50000,0,0,0,0,0.00,0.00,0.00,0.00
2016-06-25 11:40:00,2,47392,0,0.00,2,2,0,2,41856,50000,3044,48880,0,0,0,0,0.00,0.00,0.00,0.00
2016-06-25 11:50:00,2,46430,0,0.00,2,2,0,2,33053,50000,5610,50000,0,0,0,0,0.00,0.00,0.00,0.00
2016-06-25 12:00:00,2,40898,0,0.00,2,2,0,2,19085,50000,11836,47985,0,0,0,0,0.00,0.00,0.00,0.00
2016-06-25 12:10:00,2,44641,0,0.00,2,2,0,2,17970,50000,10289,50000,0,0,0,0,0.00,0.00,0.00,0.00
2016-06-25 12:20:00,2,49775,0,0.00,2,2,0,2,47747,50000,676,50000,0,0,0,0,0.00,0.00,0.00,0.00
2016-06-25 12:30:00,2,42468,0,0.00,2,2,0,2,18093,50000,12088,50000,0,0,0,0,0.00,0.00,0.00,0.00
2016-06-25 12:40:00,2,49218,0,0.00,2,2,0,2,45126,50000,1513,50000,0,0,0,0,0.00,0.00,0.00,0.00
2016-06-25 12:50:00,2,50000,0,0.00,2,2,0,2,50000,50000,0,50000,0,0,0,0,0.00,0.00,0.00,0.00
2016-06-25 13:00:00,2,50000,0,0.00,2,2,0,2,50000,50000,0,50000,0,0,0,0,0.00,0.00,0.00,0.00
2016-06-25 13:10:00,2,49938,0,0.00,0,2,1,2,49385,50000,184,50000,0,0,0,0,0.00,0.00,0.00,0.00
2016-06-25 13:20:00,2,47584,0,0.00,2,2,0,2,37582,50000,4835,50000,0,0,0,0,0.00,0.00,0.00,0.00
2016-06-25 13:30:00,2,48999,0,0.00,2,2,0,2,41125,50000,2646,50000,0,0,0,0,0.00,0.00,0.00,0.00
2016-06-25 13:40:00,2,50000,0,0.00,2,2,0,2,50000,50000,0,50000,0,0,0,0,0.00,0.00,0.00,0.00
2016-06-25 13:50:00,2,50000,0,0.00,2,2,0,2,50000,50000,0,50000,0,0,0,0,0.00,0.00,0.00,0.00
2016-06-25 14:00:00,2,50000,0,0.00,2,2,0,2,50000,50000,0,50000,0,0,0,0,0.00,0.00,0.00,0.00
2016-06-25 14:10:00,2,50000,0,0.00,2,2,0,2,50000,50000,0,50000,0,0,0,0,0.00,0.00,0.00,0.00
2016-06-25 14:20:00,0,50000,0,0.00,0,2,1,0,50000,50000,0,50000,0,0,0,0,0.00,0.00,0.00,0.00
2016-06-25 14:30:00,0,50000,0,0.00,0,0,0,0,50000,50000,0,50000,0,0,0,0,0.00,0.00,0.00,0.00
2016-06-25 14:40:00,0,50000,0,0.00,0,0,0,0,50000,50000,0,50000,0,0,0,0,0.00,0.00,0.00,0.00
2016-06-25 14:50:00,0,39907,0,0.00,0,0,0,0,8967,50000,14851,50000,0,0,0,0,0.00,0.00,0.00,0.00
2016-06-25 15:00:00,0,50000,0,0.00,0,0,0,0,50000,50000,0,50000,0,0,0,0,0.00,0.00,0.00,0.00
2016-06-25 15:10:00,0,50000,0,0.00,0,0,0,0,50000,50000,0,50000,0,0,0,0,0.00,0.00,0.00,0.00
2016-06-25 15:20:00,0,50000,0,0.00,0,0,0,0,50000,50000,0,50000,0,0,0,0,0.00,0.00,0.00,0.00
2016-06-25 15:30:00,0,50000,0,0.00,0,0,0,0,50000,50000,0,50000,0,0,0,0,0.00,0.00,0.00,0.00
2016-06-25 15:40:00,0,50000,0,0.00,0,0,0,0,50000,50000,0,50000,0,0,0,0,0.00,0.00,0.00,0.00
2016-06-25 15:50:00,1,50000,0,0.00,0,2,1,0,50000,50000,0,50000,0,0,0,0,0.00,0.00,0.00,0.00
2016-06-25 16:00:00,2,50000,0,0.00,0,2,1,2,50000,50000,0,50000,0,0,0,0,0.00,0.00,0.00,0.00
2016-06-25 16:10:00,2,49988,0,0.00,2,2,0,2,49883,50000,35,50000,0,0,0,0,0.00,0.00,0.00,0.00
2016-06-25 16:20:00,2,50000,0,0.00,2,2,0,2,50000,50000,0,50000,0,0,0,0,0.00,0.00,0.00,0.00
2016-06-25 16:30:00,2,50000,0,0.00,2,2,0,2,50000,50000,0,50000,0,0,0,0,0.00,0.00,0.00,0.00
2016-06-25 16:40:00,1,49923,0,0.00,0,2,1,2,49367,50000,190,50000,0,0,0,0,0.00,0.00,0.00,0.00
2016-06-25 16:50:00,0,48091,0,0.00,0,0,0,0,41771,50000,2525,48956,0,0,0,0,0.00,0.00,0.00,0.00
2016-06-25 17:00:00,0,48333,0,0.00,0,0,0,0,45101,50000,1560,48460,0,0,0,0,0.00,0.00,0.00,0.00
2016-06-25 17:10:00,0,48204,0,0.00,0,0,0,0,41942,50000,2587,49594,0,0,0,0,0.00,0.00,0.00,0.00
2016-06-25 17:20:00,0,49484,0,0.00,0,0,0,0,45097,50000,1464,50000,0,0,0,0,0.00,0.00,0.00,0.00
2016-06-25 17:30:00,0,49722,0,0.00,0,0,0,0,47218,50000,835,50000,0,0,0,0,0.00,0.00,0.00,0.00
2016-06-25 17:40:00,0,49587,0,0.00,0,0,0,0,47730,50000,761,50000,0,0,0,0,0.00,0.00,0.00,0.00
2016-06-25 17:50:00,0,48470,0,0.00,0,0,0,0,41976,50000,2575,50000,0,0,0,0,0.00,0.00,0.00,0.00
2016-06-25 18:00:00,0,50000,0,0.00,0,0,0,0,50000,50000,0,50000,0,0,0,0,0.00,0.00,0.00,0.00
2016-06-25 18:10:00,0,49405,0,0.00,0,0,0,0,47361,50000,930,50000,0,0,0,0,0.00,0.00,0.00,0.00
2016-06-25 18:20:00,0,49974,0,0.00,0,0,0,0,49744,50000,77,50000,0,0,0,0,0.00,0.00,0.00,0.00
2016-06-25 18:30:00,0,47916,0,0.00,0,0,0,0,44539,50000,1996,48527,0,0,0,0,0.00,0.00,0.00,0.00
2016-06-25 18:40:00,0,45016,0,0.00,0,0,0,0,40440,50000,3338,44754,0,0,0,0,0.00,0.00,0.00,0.00
2016-06-25 18:50:00,0,48436,0,0.00,0,0,0,0,43197,50000,2544,50000,0,0,0,0,0.00,0.00,0.00,0.00
2016-06-25 19:00:00,0,49765,0,0.00,0,0,0,0,48311,50000,523,50000,0,0,0,0,0.00,0.00,0.00,0.00
2016-06-25 19:10:00,0,49503,0,0.00,0,0,0,0,47320,50000,897,50000,0,0,0,0,0.00,0.00,0.00,0.00
2016-06-25 19:20:00,0,49173,0,0.00,0,0,0,0,46721,50000,1203,49980,0,0,0,0,0.00,0.00,0.00,0.00
2016-06-25 19:30:00,0,48345,0,0.00,0,0,0,0,42158,50000,2503,49962,0,0,0,0,0.00,0.00,0.00,0.00
2016-06-25 19:40:00,0,47882,0,0.00,0,0,0,0,45375,50000,1629,48200,0,0,0,0,0.00,0.00,0.00,0.00
2016-06-25 19:50:00,0,49613,0,0.00,0,0,0,0,47321,50000,842,50000,0,0,0,0,0.00,0.00,0.00,0.00
2016-06-25 20:00:00,0,50000,0,0.00,0,0,0,0,50000,50000,0,50000,0,0,0,0,0.00,0.00,0.00,0.00
2016-06-25 20:10:00,0,49732,0,0.00,0,0,0,0,48055,50000,600,50000,0,0,0,0,0.00,0.00,0.00,0.00
2016-06-25 20:20:00,0,48331,0,0.00,0,0,0,0,44353,50000,2120,49374,0,0,0,0,0.00,0.00,0.00,0.00
2016-06-25 20:30:00,0,49600,0,0.00,0,0,0,0,46005,50000,1198,50000,0,0,0,0,0.00,0.00,0.00,0.00
2016-06-25 20:40:00,0,49988,0,0.00,0,0,0,0,49884,50000,35,50000,0,0,0,0,0.00,0.00,0.00,0.00
2016-06-25 20:50:00,0,49712,0,0.00,0,0,0,0,48530,50000,576,50000,0,0,0,0,0.00,0.00,0.00,0.00
2016-06-25 21:00:00,0,47383,0,0.00,0,0,0,0,39054,50000,3899,50000,0,0,0,0,0.00,0.00,0.00,0.00
2016-06-25 21:10:00,0,48809,0,0.00,0,0,0,0,45534,50000,1649,50000,0,0,0,0,0.00,0.00,0.00,0.00
2016-06-25 21:20:00,0,44377,0,0.00,0,0,0,0,30913,50000,6341,45274,0,0,0,0,0.00,0.00,0.00,0.00
2016-06-25 21:30:00,0,44695,0,0.00,0,0,0,0,34632,50000,5777,46778,0,0,0,0,0.00,0.00,0.00,0.00
2016-06-25 21:40:00,0,46604,0,0.00,0,0,0,0,32092,50000,5647,50000,0,0,0,0,0.00,0.00,0.00,0.00
2016-06-25 21:50:00,0,48422,0,0.00,0,0,0,0,45957,50000,1683,49154,0,0,0,0,0.00,0.00,0.00,0.00
2016-06-25 22:00:00,0,46049,0,0.00,0,2,1,0,27813,50000,6397,48028,0,0,0,0,0.00,0.00,0.00,0.00
2016-06-25 22:10:00,2,46738,0,0.00,0,2,1,2,36241,50000,4193,48732,0,0,0,0,0.00,0.00,0.00,0.00
2016-06-25 22:20:00,1,45091,0,0.00,0,2,1,2,36779,50000,4348,46360,0,0,0,0,0.00,0.00,0.00,0.00
2016-06-25 22:30:00,2,44682,0,0.00,0,2,1,2,31278,50000,6301,47387,0,0,0,0,0.00,0.00,0.00,0.00
2016-06-25 22:40:00,2,42809,0,0.00,2,2,0,2,27597,50000,6201,43648,0,0,0,0,0.00,0.00,0.00,0.00
2016-06-25 22:50:00,2,44525,0,0.00,2,2,0,2,35298,50000,5653,45957,0,0,0,0,0.00,0.00,0.00,0.00
2016-06-25 23:00:00,2,44400,0,0.00,2,2,0,2,34272,50000,4788,44192,0,0,0,0,0.00,0.00,0.00,0.00
2016-06-25 23:10:00,2,44287,0,0.00,2,2,0,2,26289,50000,6890,46446,0,0,0,0,0.00,0.00,0.00,0.00
2016-06-25 23:20:00,2,37997,0,0.00,2,2,0,2,27574,49692,6913,37478,0,0,0,0,0.00,0.00,0.00,0.00
2016-06-25 23:30:00,2,41582,0,0.00,2,2,0,2,30325,50000,8224,43634,0,0,0,0,0.00,0.00,0.00,0.00
2016-06-25 23:40:00,1,46527,0,0.00,0,2,1,1,39341,50000,4098,48126,0,0,0,0,0.00,0.00,0.00,0.00
2016-06-25 23:50:00,0,44838,0,0.00,0,2,1,0,34013,50000,5650,46593,0,0,0,0,0.00,0.00,0.00,0.00
